Time,TemperatureF,DewpointF,PressureIn,WindDirection,WindDirectionDegrees,WindSpeedMPH,WindSpeedGustMPH,Humidity,HourlyPrecipIn,Conditions,Clouds,dailyrainin,SoftwareType,DateUTC
2013-03-26 00:00:00,29.7,24.9,30.05,NW,317,0.0,1.0,82,0.00,,,0.00,Wunderground v.1.15,2013-03-26 04:00:00,
2013-03-26 00:03:00,29.6,24.8,30.04,NE,34,1.0,4.0,82,0.00,,,0.00,Wunderground v.1.15,2013-03-26 04:03:00,
2013-03-26 00:04:00,29.6,25.1,30.04,NNE,33,0.0,4.0,83,0.00,,,0.00,Wunderground v.1.15,2013-03-26 04:04:00,
2013-03-26 00:09:00,29.4,24.9,30.04,North,360,0.0,4.0,83,0.00,,,0.00,Wunderground v.1.15,2013-03-26 04:09:00,
2013-03-26 00:14:00,29.4,25.2,30.05,NE,44,0.0,2.0,84,0.00,,,0.00,Wunderground v.1.15,2013-03-26 04:14:00,
2013-03-26 00:19:00,29.2,25.0,30.05,West,262,2.0,6.0,84,0.00,,,0.00,Wunderground v.1.15,2013-03-26 04:19:00,
2013-03-26 00:25:00,29.1,24.9,30.05,North,349,1.0,1.0,84,0.00,,,0.00,Wunderground v.1.15,2013-03-26 04:25:00,
2013-03-26 00:30:00,29.1,24.9,30.05,South,188,0.0,1.0,84,0.00,,,0.00,Wunderground v.1.15,2013-03-26 04:30:00,
2013-03-26 00:36:00,29.0,25.1,30.05,West,279,0.0,1.0,85,0.00,,,0.00,Wunderground v.1.15,2013-03-26 04:36:00,
2013-03-26 00:42:00,29.0,25.1,30.05,WSW,240,0.0,1.0,85,0.00,,,0.00,Wunderground v.1.15,2013-03-26 04:42:00,
2013-03-26 00:48:00,29.0,24.8,30.05,WSW,244,0.0,3.0,84,0.00,,,0.00,Wunderground v.1.15,2013-03-26 04:48:00,
2013-03-26 00:54:00,29.0,25.1,30.05,NW,315,0.0,1.0,85,0.00,,,0.00,Wunderground v.1.15,2013-03-26 04:54:00,
2013-03-26 00:59:00,28.9,25.0,30.05,East,91,1.0,4.0,85,0.00,,,0.00,Wunderground v.1.15,2013-03-26 04:59:00,
2013-03-26 01:04:00,28.8,25.1,30.05,SW,230,0.0,2.0,86,0.00,,,0.00,Wunderground v.1.15,2013-03-26 05:04:00,
2013-03-26 01:10:00,28.7,25.0,30.06,West,280,0.0,1.0,86,0.00,,,0.00,Wunderground v.1.15,2013-03-26 05:10:00,
2013-03-26 01:15:00,28.6,24.9,30.06,NNE,19,5.0,5.0,86,0.00,,,0.00,Wunderground v.1.15,2013-03-26 05:15:00,
2013-03-26 01:20:00,28.6,25.2,30.06,NW,313,2.0,2.0,87,0.00,,,0.00,Wunderground v.1.15,2013-03-26 05:20:00,
2013-03-26 01:25:00,28.4,25.0,30.06,NNW,336,0.0,6.0,87,0.00,,,0.00,Wunderground v.1.15,2013-03-26 05:25:00,
2013-03-26 01:31:00,28.3,24.9,30.07,West,279,0.0,1.0,87,0.00,,,0.00,Wunderground v.1.15,2013-03-26 05:31:00,
2013-03-26 01:36:00,28.3,25.2,30.07,SW,221,0.0,1.0,88,0.00,,,0.00,Wunderground v.1.15,2013-03-26 05:36:00,
2013-03-26 01:42:00,28.2,25.1,30.07,WSW,256,1.0,2.0,88,0.00,,,0.00,Wunderground v.1.15,2013-03-26 05:42:00,
2013-03-26 01:47:00,28.1,25.0,30.06,NE,47,0.0,2.0,88,0.00,,,0.00,Wunderground v.1.15,2013-03-26 05:47:00,
2013-03-26 01:53:00,28.0,24.9,30.07,West,259,0.0,1.0,88,0.00,,,0.00,Wunderground v.1.15,2013-03-26 05:53:00,
2013-03-26 01:58:00,27.9,24.8,30.07,West,261,0.0,1.0,88,0.00,,,0.00,Wunderground v.1.15,2013-03-26 05:58:00,
2013-03-26 02:03:00,27.9,24.8,30.07,West,261,0.0,2.0,88,0.00,,,0.00,Wunderground v.1.15,2013-03-26 06:03:00,
2013-03-26 02:08:00,27.9,24.5,30.06,WSW,257,2.0,5.0,87,0.00,,,0.00,Wunderground v.1.15,2013-03-26 06:08:00,
2013-03-26 02:13:00,28.0,24.6,30.07,SW,225,0.0,7.0,87,0.00,,,0.00,Wunderground v.1.15,2013-03-26 06:13:00,
2013-03-26 02:18:00,28.0,24.6,30.07,SW,221,0.0,7.0,87,0.00,,,0.00,Wunderground v.1.15,2013-03-26 06:18:00,
2013-03-26 02:23:00,28.0,24.6,30.07,SW,234,0.0,3.0,87,0.00,,,0.00,Wunderground v.1.15,2013-03-26 06:23:00,
2013-03-26 02:28:00,28.0,24.9,30.07,SW,234,1.0,3.0,88,0.00,,,0.00,Wunderground v.1.15,2013-03-26 06:28:00,
2013-03-26 02:33:00,28.0,24.9,30.07,SSW,198,1.0,4.0,88,0.00,,,0.00,Wunderground v.1.15,2013-03-26 06:33:00,
2013-03-26 02:38:00,28.0,25.2,30.07,WNW,298,0.0,4.0,89,0.00,,,0.00,Wunderground v.1.15,2013-03-26 06:38:00,
2013-03-26 02:43:00,27.9,25.1,30.07,WSW,248,0.0,3.0,89,0.00,,,0.00,Wunderground v.1.15,2013-03-26 06:43:00,
2013-03-26 02:48:00,27.8,24.7,30.07,West,269,2.0,4.0,88,0.00,,,0.00,Wunderground v.1.15,2013-03-26 06:48:00,
2013-03-26 02:53:00,27.8,24.7,30.07,West,275,1.0,3.0,88,0.00,,,0.00,Wunderground v.1.15,2013-03-26 06:53:00,
2013-03-26 02:58:00,27.8,24.7,30.07,West,275,2.0,3.0,88,0.00,,,0.00,Wunderground v.1.15,2013-03-26 06:58:00,
2013-03-26 03:03:00,27.8,24.7,30.07,WSW,240,0.0,4.0,88,0.00,,,0.00,Wunderground v.1.15,2013-03-26 07:03:00,
2013-03-26 03:08:00,27.8,24.4,30.07,WSW,255,0.0,4.0,87,0.00,,,0.00,Wunderground v.1.15,2013-03-26 07:08:00,
2013-03-26 03:13:00,27.8,24.4,30.07,NW,311,2.0,8.0,87,0.00,,,0.00,Wunderground v.1.15,2013-03-26 07:13:00,
2013-03-26 03:18:00,27.8,24.7,30.07,WSW,253,0.0,8.0,88,0.00,,,0.00,Wunderground v.1.15,2013-03-26 07:18:00,
2013-03-26 03:23:00,27.8,24.7,30.07,WSW,257,1.0,3.0,88,0.00,,,0.00,Wunderground v.1.15,2013-03-26 07:23:00,
2013-03-26 03:28:00,27.7,24.6,30.07,NW,304,0.0,9.0,88,0.00,,,0.00,Wunderground v.1.15,2013-03-26 07:28:00,
2013-03-26 03:33:00,27.7,24.3,30.07,ESE,113,0.0,1.0,87,0.00,,,0.00,Wunderground v.1.15,2013-03-26 07:33:00,
2013-03-26 03:38:00,27.7,24.1,30.07,WNW,283,1.0,7.0,86,0.00,,,0.00,Wunderground v.1.15,2013-03-26 07:38:00,
2013-03-26 03:43:00,27.7,24.1,30.07,West,268,0.0,3.0,86,0.00,,,0.00,Wunderground v.1.15,2013-03-26 07:43:00,
2013-03-26 03:48:00,27.7,24.3,30.07,NE,36,0.0,10.0,87,0.00,,,0.00,Wunderground v.1.15,2013-03-26 07:48:00,
2013-03-26 03:53:00,27.7,24.3,30.06,East,101,0.0,3.0,87,0.00,,,0.00,Wunderground v.1.15,2013-03-26 07:53:00,
2013-03-26 03:58:00,27.7,24.1,30.07,SW,225,3.0,6.0,86,0.00,,,0.00,Wunderground v.1.15,2013-03-26 07:58:00,
2013-03-26 04:03:00,27.7,24.1,30.07,WNW,290,1.0,3.0,86,0.00,,,0.00,Wunderground v.1.15,2013-03-26 08:03:00,
2013-03-26 04:08:00,27.8,24.4,30.06,East,98,0.0,3.0,87,0.00,,,0.00,Wunderground v.1.15,2013-03-26 08:08:00,
2013-03-26 04:13:00,27.8,24.2,30.07,NW,317,0.0,2.0,86,0.00,,,0.00,Wunderground v.1.15,2013-03-26 08:13:00,
2013-03-26 04:18:00,27.8,24.4,30.06,SW,229,0.0,3.0,87,0.00,,,0.00,Wunderground v.1.15,2013-03-26 08:18:00,
2013-03-26 04:23:00,27.8,24.4,30.07,WNW,286,1.0,2.0,87,0.00,,,0.00,Wunderground v.1.15,2013-03-26 08:23:00,
2013-03-26 04:28:00,27.8,24.4,30.06,North,5,0.0,6.0,87,0.00,,,0.00,Wunderground v.1.15,2013-03-26 08:28:00,
2013-03-26 04:33:00,27.8,24.2,30.07,NNE,12,1.0,9.0,86,0.00,,,0.00,Wunderground v.1.15,2013-03-26 08:33:00,
2013-03-26 04:38:00,27.8,24.4,30.07,NE,39,0.0,9.0,87,0.00,,,0.00,Wunderground v.1.15,2013-03-26 08:38:00,
2013-03-26 04:43:00,27.8,24.2,30.06,North,355,2.0,9.0,86,0.00,,,0.00,Wunderground v.1.15,2013-03-26 08:43:00,
2013-03-26 04:48:00,27.9,24.3,30.07,West,266,0.0,9.0,86,0.00,,,0.00,Wunderground v.1.15,2013-03-26 08:48:00,
2013-03-26 04:53:00,27.9,24.3,30.07,WSW,252,1.0,3.0,86,0.00,,,0.00,Wunderground v.1.15,2013-03-26 08:53:00,
2013-03-26 04:58:00,27.9,24.0,30.06,WSW,242,1.0,4.0,85,0.00,,,0.00,Wunderground v.1.15,2013-03-26 08:58:00,
2013-03-26 05:03:00,27.9,24.3,30.06,SSW,210,0.0,2.0,86,0.00,,,0.00,Wunderground v.1.15,2013-03-26 09:03:00,
2013-03-26 05:08:00,28.0,24.4,30.06,North,360,3.0,7.0,86,0.00,,,0.00,Wunderground v.1.15,2013-03-26 09:08:00,
2013-03-26 05:13:00,28.0,24.4,30.06,NNE,25,0.0,4.0,86,0.00,,,0.00,Wunderground v.1.15,2013-03-26 09:13:00,
2013-03-26 05:18:00,28.0,24.4,30.06,WSW,244,0.0,4.0,86,0.00,,,0.00,Wunderground v.1.15,2013-03-26 09:18:00,
2013-03-26 05:23:00,27.9,24.0,30.07,NNE,32,3.0,7.0,85,0.00,,,0.00,Wunderground v.1.15,2013-03-26 09:23:00,
2013-03-26 05:28:00,27.9,24.0,30.07,NNE,33,2.0,9.0,85,0.00,,,0.00,Wunderground v.1.15,2013-03-26 09:28:00,
2013-03-26 05:34:00,27.9,24.0,30.07,North,11,0.0,3.0,85,0.00,,,0.00,Wunderground v.1.15,2013-03-26 09:34:00,
2013-03-26 05:39:00,27.9,24.3,30.06,SSW,209,1.0,4.0,86,0.00,,,0.00,Wunderground v.1.15,2013-03-26 09:39:00,
2013-03-26 05:44:00,28.0,24.4,30.07,NW,325,0.0,6.0,86,0.00,,,0.00,Wunderground v.1.15,2013-03-26 09:44:00,
2013-03-26 05:49:00,28.0,24.4,30.07,WNW,300,0.0,7.0,86,0.00,,,0.00,Wunderground v.1.15,2013-03-26 09:49:00,
2013-03-26 05:54:00,28.0,24.4,30.07,NNW,338,0.0,10.0,86,0.00,,,0.00,Wunderground v.1.15,2013-03-26 09:54:00,
2013-03-26 05:59:00,28.0,24.4,30.07,NE,42,0.0,10.0,86,0.00,,,0.00,Wunderground v.1.15,2013-03-26 09:59:00,
2013-03-26 06:04:00,28.1,24.5,30.07,WSW,244,1.0,11.0,86,0.00,,,0.00,Wunderground v.1.15,2013-03-26 10:04:00,
2013-03-26 06:09:00,28.0,24.4,30.07,NNW,331,1.0,11.0,86,0.00,,,0.00,Wunderground v.1.15,2013-03-26 10:09:00,
2013-03-26 06:14:00,28.1,24.5,30.07,NW,304,0.0,2.0,86,0.00,,,0.00,Wunderground v.1.15,2013-03-26 10:14:00,
2013-03-26 06:19:00,28.1,24.5,30.07,NE,46,0.0,4.0,86,0.00,,,0.00,Wunderground v.1.15,2013-03-26 10:19:00,
2013-03-26 06:24:00,28.1,24.7,30.07,NNW,327,1.0,4.0,87,0.00,,,0.00,Wunderground v.1.15,2013-03-26 10:24:00,
2013-03-26 06:29:00,28.1,24.7,30.07,NNE,23,2.0,4.0,87,0.00,,,0.00,Wunderground v.1.15,2013-03-26 10:29:00,
2013-03-26 06:34:00,28.1,24.7,30.07,East,88,0.0,7.0,87,0.00,,,0.00,Wunderground v.1.15,2013-03-26 10:34:00,
2013-03-26 06:39:00,28.0,24.6,30.08,NNW,339,0.0,7.0,87,0.00,,,0.00,Wunderground v.1.15,2013-03-26 10:39:00,
2013-03-26 06:44:00,28.0,24.9,30.08,NNW,348,0.0,5.0,88,0.00,,,0.00,Wunderground v.1.15,2013-03-26 10:44:00,
2013-03-26 06:49:00,27.9,24.8,30.08,NW,323,5.0,5.0,88,0.00,,,0.00,Wunderground v.1.15,2013-03-26 10:49:00,
2013-03-26 06:54:00,27.9,25.1,30.07,North,5,0.0,2.0,89,0.00,,,0.00,Wunderground v.1.15,2013-03-26 10:54:00,
2013-03-26 06:59:00,27.8,25.0,30.08,West,278,0.0,2.0,89,0.00,,,0.00,Wunderground v.1.15,2013-03-26 10:59:00,
2013-03-26 07:04:00,27.7,24.9,30.08,SSE,163,0.0,3.0,89,0.00,,,0.00,Wunderground v.1.15,2013-03-26 11:04:00,
2013-03-26 07:09:00,27.7,24.9,30.08,WNW,290,1.0,4.0,89,0.00,,,0.00,Wunderground v.1.15,2013-03-26 11:09:00,
2013-03-26 07:14:00,27.7,24.9,30.08,NNE,29,3.0,4.0,89,0.00,,,0.00,Wunderground v.1.15,2013-03-26 11:14:00,
2013-03-26 07:19:00,27.7,24.9,30.09,NNE,24,0.0,6.0,89,0.00,,,0.00,Wunderground v.1.15,2013-03-26 11:19:00,
2013-03-26 07:24:00,27.7,25.2,30.09,NNE,28,0.0,3.0,90,0.00,,,0.00,Wunderground v.1.15,2013-03-26 11:24:00,
2013-03-26 07:29:00,27.7,25.2,30.08,NE,40,0.0,6.0,90,0.00,,,0.00,Wunderground v.1.15,2013-03-26 11:29:00,
2013-03-26 07:34:00,27.7,25.2,30.09,NE,46,2.0,4.0,90,0.00,,,0.00,Wunderground v.1.15,2013-03-26 11:34:00,
2013-03-26 07:39:00,27.7,25.2,30.09,SSW,207,0.0,0.0,90,0.00,,,0.00,Wunderground v.1.15,2013-03-26 11:39:00,
2013-03-26 07:45:00,27.7,25.2,30.09,NNW,346,1.0,5.0,90,0.00,,,0.00,Wunderground v.1.15,2013-03-26 11:45:00,
2013-03-26 07:50:00,27.8,25.2,30.09,NNE,29,0.0,1.0,90,0.00,,,0.00,Wunderground v.1.15,2013-03-26 11:50:00,
2013-03-26 07:55:00,27.8,25.2,30.10,North,11,1.0,5.0,90,0.00,,,0.00,Wunderground v.1.15,2013-03-26 11:55:00,
2013-03-26 08:00:00,27.9,25.3,30.10,NE,37,4.0,4.0,90,0.00,,,0.00,Wunderground v.1.15,2013-03-26 12:00:00,
2013-03-26 08:05:00,27.9,25.3,30.10,ENE,63,0.0,4.0,90,0.00,,,0.00,Wunderground v.1.15,2013-03-26 12:05:00,
2013-03-26 08:10:00,28.1,25.5,30.10,ENE,71,1.0,2.0,90,0.00,,,0.00,Wunderground v.1.15,2013-03-26 12:10:00,
2013-03-26 08:15:00,28.1,25.5,30.10,East,89,1.0,5.0,90,0.00,,,0.00,Wunderground v.1.15,2013-03-26 12:15:00,
2013-03-26 08:20:00,28.2,25.6,30.10,SE,134,0.0,1.0,90,0.00,,,0.00,Wunderground v.1.15,2013-03-26 12:20:00,
2013-03-26 08:25:00,28.3,25.7,30.11,East,93,0.0,4.0,90,0.00,,,0.00,Wunderground v.1.15,2013-03-26 12:25:00,
2013-03-26 08:30:00,28.4,25.8,30.10,NE,46,1.0,4.0,90,0.00,,,0.00,Wunderground v.1.15,2013-03-26 12:30:00,
2013-03-26 08:35:00,28.5,25.7,30.11,WSW,250,0.0,4.0,89,0.00,,,0.00,Wunderground v.1.15,2013-03-26 12:35:00,
2013-03-26 08:40:00,28.6,25.5,30.11,West,279,0.0,1.0,88,0.00,,,0.00,Wunderground v.1.15,2013-03-26 12:40:00,
2013-03-26 08:45:00,28.7,25.3,30.11,ENE,78,0.0,7.0,87,0.00,,,0.00,Wunderground v.1.15,2013-03-26 12:45:00,
2013-03-26 08:50:00,28.8,25.7,30.11,NNW,327,0.0,6.0,88,0.00,,,0.00,Wunderground v.1.15,2013-03-26 12:50:00,
2013-03-26 08:55:00,29.0,25.6,30.12,North,360,1.0,14.0,87,0.00,,,0.00,Wunderground v.1.15,2013-03-26 12:55:00,
2013-03-26 09:00:00,29.1,25.4,30.12,NE,48,3.0,3.0,86,0.00,,,0.00,Wunderground v.1.15,2013-03-26 13:00:00,
2013-03-26 09:05:00,29.2,25.5,30.13,NE,44,0.0,5.0,86,0.00,,,0.00,Wunderground v.1.15,2013-03-26 13:05:00,
2013-03-26 09:10:00,29.3,25.6,30.13,WSW,251,3.0,3.0,86,0.00,,,0.00,Wunderground v.1.15,2013-03-26 13:10:00,
2013-03-26 09:15:00,29.5,25.5,30.14,WNW,286,1.0,9.0,85,0.00,,,0.00,Wunderground v.1.15,2013-03-26 13:15:00,
2013-03-26 09:20:00,29.6,25.4,30.14,West,261,3.0,4.0,84,0.00,,,0.00,Wunderground v.1.15,2013-03-26 13:20:00,
2013-03-26 09:25:00,29.7,25.5,30.14,WNW,295,1.0,6.0,84,0.00,,,0.00,Wunderground v.1.15,2013-03-26 13:25:00,
2013-03-26 09:30:00,30.0,25.5,30.15,SW,227,2.0,5.0,83,0.00,,,0.00,Wunderground v.1.15,2013-03-26 13:30:00,
2013-03-26 09:35:00,30.1,25.6,30.15,ENE,59,4.0,6.0,83,0.00,,,0.00,Wunderground v.1.15,2013-03-26 13:35:00,
2013-03-26 09:40:00,30.3,25.8,30.15,West,274,1.0,2.0,83,0.00,,,0.00,Wunderground v.1.15,2013-03-26 13:40:00,
2013-03-26 09:45:00,30.5,25.4,30.15,NE,40,9.0,9.0,81,0.00,,,0.00,Wunderground v.1.15,2013-03-26 13:45:00,
2013-03-26 09:50:00,30.9,25.8,30.15,NNE,21,0.0,7.0,81,0.00,,,0.00,Wunderground v.1.15,2013-03-26 13:50:00,
2013-03-26 09:55:00,31.3,26.1,30.15,NNW,346,0.0,7.0,81,0.00,,,0.00,Wunderground v.1.15,2013-03-26 13:55:00,
2013-03-26 10:00:00,31.7,26.2,30.15,SSW,205,0.0,2.0,80,0.00,,,0.00,Wunderground v.1.15,2013-03-26 14:00:00,
2013-03-26 10:06:00,32.0,26.5,30.15,WSW,238,0.0,9.0,80,0.00,,,0.00,Wunderground v.1.15,2013-03-26 14:06:00,
2013-03-26 10:11:00,32.3,26.8,30.15,SSW,192,0.0,1.0,80,0.00,,,0.00,Wunderground v.1.15,2013-03-26 14:11:00,
2013-03-26 10:16:00,32.7,26.3,30.16,North,11,3.0,11.0,77,0.00,,,0.00,Wunderground v.1.15,2013-03-26 14:16:00,
2013-03-26 10:21:00,32.7,26.3,30.16,SW,219,0.0,2.0,77,0.00,,,0.00,Wunderground v.1.15,2013-03-26 14:21:00,
2013-03-26 10:26:00,32.6,26.2,30.16,WNW,290,0.0,3.0,77,0.00,,,0.00,Wunderground v.1.15,2013-03-26 14:26:00,
2013-03-26 10:31:00,33.0,26.9,30.16,South,186,2.0,4.0,78,0.00,,,0.00,Wunderground v.1.15,2013-03-26 14:31:00,
2013-03-26 10:36:00,33.1,26.0,30.17,West,259,3.0,14.0,75,0.00,,,0.00,Wunderground v.1.15,2013-03-26 14:36:00,
2013-03-26 10:42:00,32.7,26.0,30.17,NNW,333,1.0,3.0,76,0.00,,,0.00,Wunderground v.1.15,2013-03-26 14:42:00,
2013-03-26 10:47:00,32.6,25.9,30.17,WSW,250,1.0,17.0,76,0.00,,,0.00,Wunderground v.1.15,2013-03-26 14:47:00,
2013-03-26 10:52:00,32.8,26.7,30.18,WSW,245,2.0,3.0,78,0.00,,,0.00,Wunderground v.1.15,2013-03-26 14:52:00,
2013-03-26 10:57:00,33.1,26.7,30.17,WSW,242,1.0,6.0,77,0.00,,,0.00,Wunderground v.1.15,2013-03-26 14:57:00,
2013-03-26 11:02:00,33.6,27.2,30.18,WSW,251,1.0,10.0,77,0.00,,,0.00,Wunderground v.1.15,2013-03-26 15:02:00,
2013-03-26 11:07:00,33.7,27.3,30.18,SSW,207,2.0,10.0,77,0.00,,,0.00,Wunderground v.1.15,2013-03-26 15:07:00,
2013-03-26 11:12:00,33.7,26.6,30.18,NE,46,2.0,7.0,75,0.00,,,0.00,Wunderground v.1.15,2013-03-26 15:12:00,
2013-03-26 11:17:00,33.5,26.7,30.18,SW,234,2.0,7.0,76,0.00,,,0.00,Wunderground v.1.15,2013-03-26 15:17:00,
2013-03-26 11:22:00,33.3,26.2,30.19,NE,44,5.0,12.0,75,0.00,,,0.00,Wunderground v.1.15,2013-03-26 15:22:00,
2013-03-26 11:27:00,33.2,26.1,30.20,WSW,240,4.0,12.0,75,0.00,,,0.00,Wunderground v.1.15,2013-03-26 15:27:00,
2013-03-26 11:32:00,33.2,26.1,30.20,WSW,248,0.0,3.0,75,0.00,,,0.00,Wunderground v.1.15,2013-03-26 15:32:00,
2013-03-26 11:37:00,33.3,26.5,30.20,North,11,0.0,3.0,76,0.00,,,0.00,Wunderground v.1.15,2013-03-26 15:37:00,
2013-03-26 11:42:00,33.6,26.5,30.20,NNE,22,0.0,3.0,75,0.00,,,0.00,Wunderground v.1.15,2013-03-26 15:42:00,
2013-03-26 11:47:00,33.8,26.7,30.20,South,185,3.0,3.0,75,0.00,,,0.00,Wunderground v.1.15,2013-03-26 15:47:00,
2013-03-26 11:52:00,33.8,26.7,30.20,SW,236,3.0,4.0,75,0.00,,,0.00,Wunderground v.1.15,2013-03-26 15:52:00,
2013-03-26 11:57:00,33.7,26.6,30.21,West,267,3.0,6.0,75,0.00,,,0.00,Wunderground v.1.15,2013-03-26 15:57:00,
2013-03-26 12:02:00,33.7,26.3,30.21,SE,136,0.0,1.0,74,0.00,,,0.00,Wunderground v.1.15,2013-03-26 16:02:00,
2013-03-26 12:07:00,33.9,26.5,30.20,SW,216,1.0,15.0,74,0.00,,,0.00,Wunderground v.1.15,2013-03-26 16:07:00,
2013-03-26 12:12:00,34.0,26.3,30.21,West,266,1.0,2.0,73,0.00,,,0.00,Wunderground v.1.15,2013-03-26 16:12:00,
2013-03-26 12:17:00,34.0,26.3,30.21,NNW,338,0.0,6.0,73,0.00,,,0.00,Wunderground v.1.15,2013-03-26 16:17:00,
2013-03-26 12:22:00,33.9,26.5,30.21,NNW,337,2.0,2.0,74,0.00,,,0.00,Wunderground v.1.15,2013-03-26 16:22:00,
2013-03-26 12:27:00,34.1,26.7,30.21,NNE,26,1.0,3.0,74,0.00,,,0.00,Wunderground v.1.15,2013-03-26 16:27:00,
2013-03-26 12:32:00,34.2,26.4,30.21,SW,236,0.0,3.0,73,0.00,,,0.00,Wunderground v.1.15,2013-03-26 16:32:00,
2013-03-26 12:37:00,34.5,26.7,30.21,SSW,213,1.0,3.0,73,0.00,,,0.00,Wunderground v.1.15,2013-03-26 16:37:00,
2013-03-26 12:42:00,35.0,26.9,30.21,NNE,12,1.0,6.0,72,0.00,,,0.00,Wunderground v.1.15,2013-03-26 16:42:00,
2013-03-26 12:47:00,35.2,27.7,30.21,NNE,15,7.0,10.0,74,0.00,,,0.00,Wunderground v.1.15,2013-03-26 16:47:00,
2013-03-26 12:53:00,35.2,27.1,30.21,NNW,339,1.0,10.0,72,0.00,,,0.00,Wunderground v.1.15,2013-03-26 16:53:00,
2013-03-26 12:58:00,35.1,27.0,30.21,West,264,1.0,10.0,72,0.00,,,0.00,Wunderground v.1.15,2013-03-26 16:58:00,
2013-03-26 13:03:00,34.9,26.4,30.22,West,277,2.0,18.0,71,0.00,,,0.00,Wunderground v.1.15,2013-03-26 17:03:00,
2013-03-26 13:08:00,35.0,26.5,30.21,ENE,61,5.0,18.0,71,0.00,,,0.00,Wunderground v.1.15,2013-03-26 17:08:00,
2013-03-26 13:13:00,35.0,26.5,30.22,North,355,7.0,9.0,71,0.00,,,0.00,Wunderground v.1.15,2013-03-26 17:13:00,
2013-03-26 13:18:00,34.9,26.8,30.21,NNE,22,2.0,10.0,72,0.00,,,0.00,Wunderground v.1.15,2013-03-26 17:18:00,
2013-03-26 13:23:00,35.2,27.1,30.21,NNE,33,4.0,5.0,72,0.00,,,0.00,Wunderground v.1.15,2013-03-26 17:23:00,
2013-03-26 13:28:00,35.2,26.4,30.21,NNE,17,0.0,13.0,70,0.00,,,0.00,Wunderground v.1.15,2013-03-26 17:28:00,
2013-03-26 13:33:00,35.0,26.5,30.22,West,273,0.0,3.0,71,0.00,,,0.00,Wunderground v.1.15,2013-03-26 17:33:00,
2013-03-26 13:38:00,34.6,26.5,30.22,WNW,303,0.0,6.0,72,0.00,,,0.00,Wunderground v.1.15,2013-03-26 17:38:00,
2013-03-26 13:43:00,34.2,26.1,30.21,WNW,300,2.0,2.0,72,0.00,,,0.00,Wunderground v.1.15,2013-03-26 17:43:00,
2013-03-26 13:48:00,34.5,27.1,30.21,SW,222,2.0,5.0,74,0.00,,,0.00,Wunderground v.1.15,2013-03-26 17:48:00,
2013-03-26 13:53:00,35.4,26.9,30.22,WNW,282,0.0,12.0,71,0.00,,,0.00,Wunderground v.1.15,2013-03-26 17:53:00,
2013-03-26 13:58:00,35.5,27.4,30.22,SW,219,1.0,12.0,72,0.00,,,0.00,Wunderground v.1.15,2013-03-26 17:58:00,
2013-03-26 14:03:00,35.3,27.5,30.22,West,268,2.0,3.0,73,0.00,,,0.00,Wunderground v.1.15,2013-03-26 18:03:00,
2013-03-26 14:08:00,35.1,27.0,30.22,West,259,3.0,5.0,72,0.00,,,0.00,Wunderground v.1.15,2013-03-26 18:08:00,
2013-03-26 14:13:00,35.2,27.4,30.22,NE,38,1.0,5.0,73,0.00,,,0.00,Wunderground v.1.15,2013-03-26 18:13:00,
2013-03-26 14:18:00,35.8,28.3,30.22,SSW,204,1.0,13.0,74,0.00,,,0.00,Wunderground v.1.15,2013-03-26 18:18:00,
2013-03-26 14:23:00,36.5,27.3,30.22,SW,234,1.0,5.0,69,0.00,,,0.00,Wunderground v.1.15,2013-03-26 18:23:00,
2013-03-26 14:28:00,36.6,28.1,30.22,ENE,65,10.0,10.0,71,0.00,,,0.00,Wunderground v.1.15,2013-03-26 18:28:00,
2013-03-26 14:33:00,36.3,27.1,30.23,North,11,5.0,11.0,69,0.00,,,0.00,Wunderground v.1.15,2013-03-26 18:33:00,
2013-03-26 14:38:00,35.9,27.1,30.22,West,267,2.0,11.0,70,0.00,,,0.00,Wunderground v.1.15,2013-03-26 18:38:00,
2013-03-26 14:43:00,35.6,27.5,30.22,WSW,239,0.0,4.0,72,0.00,,,0.00,Wunderground v.1.15,2013-03-26 18:43:00,
2013-03-26 14:48:00,35.6,28.1,30.23,NNE,33,4.0,4.0,74,0.00,,,0.00,Wunderground v.1.15,2013-03-26 18:48:00,
2013-03-26 14:53:00,35.8,28.0,30.22,NW,304,3.0,4.0,73,0.00,,,0.00,Wunderground v.1.15,2013-03-26 18:53:00,
2013-03-26 14:58:00,35.5,26.7,30.22,WNW,296,1.0,7.0,70,0.00,,,0.00,Wunderground v.1.15,2013-03-26 18:58:00,
2013-03-26 15:03:00,35.3,26.8,30.22,WNW,292,3.0,10.0,71,0.00,,,0.00,Wunderground v.1.15,2013-03-26 19:03:00,
2013-03-26 15:08:00,35.3,26.8,30.22,NNE,12,9.0,12.0,71,0.00,,,0.00,Wunderground v.1.15,2013-03-26 19:08:00,
2013-03-26 15:13:00,35.6,27.8,30.22,WSW,247,0.0,2.0,73,0.00,,,0.00,Wunderground v.1.15,2013-03-26 19:13:00,
2013-03-26 15:18:00,36.0,26.8,30.22,SW,230,1.0,6.0,69,0.00,,,0.00,Wunderground v.1.15,2013-03-26 19:18:00,
2013-03-26 15:23:00,36.7,27.5,30.22,WSW,255,2.0,6.0,69,0.00,,,0.00,Wunderground v.1.15,2013-03-26 19:23:00,
2013-03-26 15:28:00,37.4,28.5,30.22,NE,53,5.0,6.0,70,0.00,,,0.00,Wunderground v.1.15,2013-03-26 19:28:00,
2013-03-26 15:33:00,37.5,28.6,30.22,WSW,256,1.0,12.0,70,0.00,,,0.00,Wunderground v.1.15,2013-03-26 19:33:00,
2013-03-26 15:38:00,37.6,28.0,30.23,North,355,4.0,12.0,68,0.00,,,0.00,Wunderground v.1.15,2013-03-26 19:38:00,
2013-03-26 15:43:00,37.3,27.7,30.23,WSW,247,2.0,6.0,68,0.00,,,0.00,Wunderground v.1.15,2013-03-26 19:43:00,
2013-03-26 15:48:00,36.8,27.6,30.23,SW,234,2.0,6.0,69,0.00,,,0.00,Wunderground v.1.15,2013-03-26 19:48:00,
2013-03-26 15:53:00,37.1,27.9,30.23,SW,222,3.0,5.0,69,0.00,,,0.00,Wunderground v.1.15,2013-03-26 19:53:00,
2013-03-26 15:58:00,37.0,28.5,30.23,NNW,342,2.0,12.0,71,0.00,,,0.00,Wunderground v.1.15,2013-03-26 19:58:00,
2013-03-26 16:03:00,36.6,28.4,30.23,NW,311,1.0,11.0,72,0.00,,,0.00,Wunderground v.1.15,2013-03-26 20:03:00,
2013-03-26 16:09:00,36.2,28.0,30.24,WSW,254,1.0,11.0,72,0.00,,,0.00,Wunderground v.1.15,2013-03-26 20:09:00,
2013-03-26 16:14:00,35.9,28.1,30.23,North,9,2.0,2.0,73,0.00,,,0.00,Wunderground v.1.15,2013-03-26 20:14:00,
2013-03-26 16:19:00,35.9,28.4,30.23,WNW,294,0.0,5.0,74,0.00,,,0.00,Wunderground v.1.15,2013-03-26 20:19:00,
2013-03-26 16:24:00,35.5,28.4,30.23,NE,41,1.0,4.0,75,0.00,,,0.00,Wunderground v.1.15,2013-03-26 20:24:00,
2013-03-26 16:29:00,34.9,28.1,30.23,NW,304,1.0,12.0,76,0.00,,,0.00,Wunderground v.1.15,2013-03-26 20:29:00,
2013-03-26 16:34:00,34.3,28.5,30.23,SW,230,1.0,3.0,79,0.00,,,0.00,Wunderground v.1.15,2013-03-26 20:34:00,
2013-03-26 16:39:00,34.2,27.7,30.23,WSW,253,1.0,4.0,77,0.00,,,0.00,Wunderground v.1.15,2013-03-26 20:39:00,
2013-03-26 16:44:00,34.4,28.6,30.23,SW,236,2.0,3.0,79,0.00,,,0.00,Wunderground v.1.15,2013-03-26 20:44:00,
2013-03-26 16:49:00,34.8,28.0,30.23,West,270,1.0,5.0,76,0.00,,,0.00,Wunderground v.1.15,2013-03-26 20:49:00,
2013-03-26 16:54:00,34.8,27.7,30.24,SW,215,4.0,4.0,75,0.00,,,0.00,Wunderground v.1.15,2013-03-26 20:54:00,
2013-03-26 16:59:00,34.7,27.6,30.24,West,268,2.0,5.0,75,0.00,,,0.00,Wunderground v.1.15,2013-03-26 20:59:00,
2013-03-26 17:04:00,34.6,27.2,30.24,WNW,285,3.0,4.0,74,0.00,,,0.00,Wunderground v.1.15,2013-03-26 21:04:00,
2013-03-26 17:09:00,34.8,27.4,30.24,North,9,1.0,8.0,74,0.00,,,0.00,Wunderground v.1.15,2013-03-26 21:09:00,
2013-03-26 17:14:00,35.0,27.5,30.24,NW,318,2.0,10.0,74,0.00,,,0.00,Wunderground v.1.15,2013-03-26 21:14:00,
2013-03-26 17:19:00,35.0,28.5,30.25,ENE,77,0.0,10.0,77,0.00,,,0.00,Wunderground v.1.15,2013-03-26 21:19:00,
2013-03-26 17:24:00,34.5,28.0,30.25,West,259,1.0,7.0,77,0.00,,,0.00,Wunderground v.1.15,2013-03-26 21:24:00,
2013-03-26 17:29:00,34.2,28.4,30.25,NNE,30,0.0,7.0,79,0.00,,,0.00,Wunderground v.1.15,2013-03-26 21:29:00,
2013-03-26 17:34:00,33.9,28.1,30.25,NNE,28,0.0,5.0,79,0.00,,,0.00,Wunderground v.1.15,2013-03-26 21:34:00,
2013-03-26 17:39:00,33.8,28.3,30.25,NE,37,5.0,6.0,80,0.00,,,0.00,Wunderground v.1.15,2013-03-26 21:39:00,
2013-03-26 17:44:00,33.8,28.3,30.25,SW,221,1.0,3.0,80,0.00,,,0.00,Wunderground v.1.15,2013-03-26 21:44:00,
2013-03-26 17:49:00,33.7,28.2,30.26,WSW,255,2.0,5.0,80,0.00,,,0.00,Wunderground v.1.15,2013-03-26 21:49:00,
2013-03-26 17:54:00,33.7,28.2,30.26,NNE,22,12.0,12.0,80,0.00,,,0.00,Wunderground v.1.15,2013-03-26 21:54:00,
2013-03-26 18:00:00,33.6,27.2,30.26,SSW,192,1.0,1.0,77,0.00,,,0.00,Wunderground v.1.15,2013-03-26 22:00:00,
2013-03-26 18:05:00,33.5,27.4,30.26,WSW,239,0.0,3.0,78,0.00,,,0.00,Wunderground v.1.15,2013-03-26 22:05:00,
2013-03-26 18:10:00,33.4,27.6,30.26,WSW,238,0.0,1.0,79,0.00,,,0.00,Wunderground v.1.15,2013-03-26 22:10:00,
2013-03-26 18:15:00,33.2,27.4,30.26,WSW,245,1.0,9.0,79,0.00,,,0.00,Wunderground v.1.15,2013-03-26 22:15:00,
2013-03-26 18:20:00,33.2,27.4,30.27,NE,52,2.0,2.0,79,0.00,,,0.00,Wunderground v.1.15,2013-03-26 22:20:00,
2013-03-26 18:25:00,33.2,27.4,30.27,SSW,192,2.0,3.0,79,0.00,,,0.00,Wunderground v.1.15,2013-03-26 22:25:00,
2013-03-26 18:30:00,33.2,27.4,30.27,SW,219,3.0,3.0,79,0.00,,,0.00,Wunderground v.1.15,2013-03-26 22:30:00,
2013-03-26 18:35:00,33.3,27.2,30.27,WSW,255,0.0,4.0,78,0.00,,,0.00,Wunderground v.1.15,2013-03-26 22:35:00,
2013-03-26 18:40:00,33.3,27.5,30.27,WSW,258,1.0,1.0,79,0.00,,,0.00,Wunderground v.1.15,2013-03-26 22:40:00,
2013-03-26 18:45:00,33.2,27.4,30.27,West,259,2.0,3.0,79,0.00,,,0.00,Wunderground v.1.15,2013-03-26 22:45:00,
2013-03-26 18:50:00,33.0,27.2,30.27,NNE,24,3.0,3.0,79,0.00,,,0.00,Wunderground v.1.15,2013-03-26 22:50:00,
2013-03-26 18:55:00,32.7,26.9,30.28,West,261,1.0,7.0,79,0.00,,,0.00,Wunderground v.1.15,2013-03-26 22:55:00,
2013-03-26 19:00:00,32.5,27.0,30.28,WSW,238,1.0,2.0,80,0.00,,,0.00,Wunderground v.1.15,2013-03-26 23:00:00,
2013-03-26 19:05:00,32.4,27.2,30.28,NNW,338,1.0,5.0,81,0.00,,,0.00,Wunderground v.1.15,2013-03-26 23:05:00,
2013-03-26 19:10:00,32.4,27.2,30.28,North,355,3.0,3.0,81,0.00,,,0.00,Wunderground v.1.15,2013-03-26 23:10:00,
2013-03-26 19:15:00,32.3,26.8,30.28,WNW,296,0.0,4.0,80,0.00,,,0.00,Wunderground v.1.15,2013-03-26 23:15:00,
2013-03-26 19:20:00,32.3,26.8,30.28,NW,315,0.0,1.0,80,0.00,,,0.00,Wunderground v.1.15,2013-03-26 23:20:00,
2013-03-26 19:25:00,32.2,26.7,30.29,NW,314,0.0,2.0,80,0.00,,,0.00,Wunderground v.1.15,2013-03-26 23:25:00,
2013-03-26 19:30:00,32.2,26.7,30.28,SSW,196,3.0,4.0,80,0.00,,,0.00,Wunderground v.1.15,2013-03-26 23:30:00,
2013-03-26 19:35:00,32.2,26.7,30.29,South,184,0.0,4.0,80,0.00,,,0.00,Wunderground v.1.15,2013-03-26 23:35:00,
2013-03-26 19:40:00,32.2,26.7,30.29,NW,315,1.0,1.0,80,0.00,,,0.00,Wunderground v.1.15,2013-03-26 23:40:00,
2013-03-26 19:45:00,32.2,27.0,30.30,WSW,252,1.0,5.0,81,0.00,,,0.00,Wunderground v.1.15,2013-03-26 23:45:00,
2013-03-26 19:50:00,32.1,26.9,30.30,WSW,253,0.0,2.0,81,0.00,,,0.00,Wunderground v.1.15,2013-03-26 23:50:00,
2013-03-26 19:55:00,31.9,27.0,30.30,NW,310,1.0,7.0,82,0.00,,,0.00,Wunderground v.1.15,2013-03-26 23:55:00,
2013-03-26 20:00:00,31.7,26.8,30.30,North,355,0.0,4.0,82,0.00,,,0.00,Wunderground v.1.15,2013-03-27 00:00:00,
2013-03-26 20:05:00,31.6,27.0,30.30,West,263,0.0,4.0,83,0.00,,,0.00,Wunderground v.1.15,2013-03-27 00:05:00,
2013-03-26 20:10:00,31.4,26.8,30.30,NNE,13,4.0,4.0,83,0.00,,,0.00,Wunderground v.1.15,2013-03-27 00:10:00,
2013-03-26 20:15:00,31.3,26.7,30.30,NW,305,1.0,10.0,83,0.00,,,0.00,Wunderground v.1.15,2013-03-27 00:15:00,
2013-03-26 20:20:00,31.2,26.9,30.30,NW,309,0.0,3.0,84,0.00,,,0.00,Wunderground v.1.15,2013-03-27 00:20:00,
2013-03-26 20:25:00,31.1,26.8,30.30,NW,315,0.0,5.0,84,0.00,,,0.00,Wunderground v.1.15,2013-03-27 00:25:00,
2013-03-26 20:30:00,31.0,27.0,30.31,NNE,17,1.0,1.0,85,0.00,,,0.00,Wunderground v.1.15,2013-03-27 00:30:00,
2013-03-26 20:35:00,30.9,26.9,30.31,NNE,13,2.0,5.0,85,0.00,,,0.00,Wunderground v.1.15,2013-03-27 00:35:00,
2013-03-26 20:40:00,30.8,27.1,30.31,NE,43,2.0,2.0,86,0.00,,,0.00,Wunderground v.1.15,2013-03-27 00:40:00,
2013-03-26 20:45:00,30.7,27.0,30.31,NE,49,0.0,4.0,86,0.00,,,0.00,Wunderground v.1.15,2013-03-27 00:45:00,
2013-03-26 20:50:00,30.6,26.9,30.31,WNW,282,0.0,2.0,86,0.00,,,0.00,Wunderground v.1.15,2013-03-27 00:50:00,
2013-03-26 20:55:00,30.5,27.1,30.31,NW,313,0.0,3.0,87,0.00,,,0.00,Wunderground v.1.15,2013-03-27 00:55:00,
2013-03-26 21:00:00,30.5,27.4,30.31,West,260,2.0,2.0,88,0.00,,,0.00,Wunderground v.1.15,2013-03-27 01:00:00,
2013-03-26 21:05:00,30.4,27.3,30.32,NNW,327,0.0,2.0,88,0.00,,,0.00,Wunderground v.1.15,2013-03-27 01:05:00,
2013-03-26 21:10:00,30.4,27.3,30.32,NE,35,3.0,4.0,88,0.00,,,0.00,Wunderground v.1.15,2013-03-27 01:10:00,
2013-03-26 21:15:00,30.5,27.4,30.33,WNW,284,0.0,4.0,88,0.00,,,0.00,Wunderground v.1.15,2013-03-27 01:15:00,
2013-03-26 21:20:00,30.6,27.2,30.33,ENE,59,0.0,6.0,87,0.00,,,0.00,Wunderground v.1.15,2013-03-27 01:20:00,
2013-03-26 21:25:00,30.7,27.3,30.33,NNW,327,0.0,8.0,87,0.00,,,0.00,Wunderground v.1.15,2013-03-27 01:25:00,
2013-03-26 21:30:00,30.8,27.4,30.33,WSW,242,0.0,9.0,87,0.00,,,0.00,Wunderground v.1.15,2013-03-27 01:30:00,
2013-03-26 21:35:00,30.8,27.7,30.33,NNE,28,3.0,9.0,88,0.00,,,0.00,Wunderground v.1.15,2013-03-27 01:35:00,
2013-03-26 21:40:00,30.8,27.7,30.33,WNW,290,1.0,2.0,88,0.00,,,0.00,Wunderground v.1.15,2013-03-27 01:40:00,
2013-03-26 21:45:00,30.7,27.6,30.33,WSW,240,0.0,7.0,88,0.00,,,0.00,Wunderground v.1.15,2013-03-27 01:45:00,
2013-03-26 21:50:00,30.6,27.7,30.33,WSW,240,1.0,1.0,89,0.00,,,0.00,Wunderground v.1.15,2013-03-27 01:50:00,
2013-03-26 21:55:00,30.5,27.9,30.34,North,5,1.0,9.0,90,0.00,,,0.00,Wunderground v.1.15,2013-03-27 01:55:00,
2013-03-26 22:01:00,30.4,27.8,30.35,WSW,258,0.0,3.0,90,0.00,,,0.00,Wunderground v.1.15,2013-03-27 02:01:00,
2013-03-26 22:06:00,30.4,27.8,30.34,NNE,13,2.0,4.0,90,0.00,,,0.00,Wunderground v.1.15,2013-03-27 02:06:00,
2013-03-26 22:11:00,30.3,27.7,30.34,WNW,292,1.0,2.0,90,0.00,,,0.00,Wunderground v.1.15,2013-03-27 02:11:00,
2013-03-26 22:16:00,30.2,27.6,30.34,WNW,292,1.0,2.0,90,0.00,,,0.00,Wunderground v.1.15,2013-03-27 02:16:00,
2013-03-26 22:21:00,30.1,27.5,30.34,NE,39,1.0,2.0,90,0.00,,,0.00,Wunderground v.1.15,2013-03-27 02:21:00,
2013-03-26 22:27:00,30.0,27.4,30.34,NE,44,0.0,6.0,90,0.00,,,0.00,Wunderground v.1.15,2013-03-27 02:27:00,
2013-03-26 22:32:00,29.9,27.6,30.35,NE,36,1.0,4.0,91,0.00,,,0.00,Wunderground v.1.15,2013-03-27 02:32:00,
2013-03-26 22:37:00,29.9,27.3,30.35,NW,323,0.0,11.0,90,0.00,,,0.00,Wunderground v.1.15,2013-03-27 02:37:00,
2013-03-26 22:42:00,29.9,27.3,30.35,NW,325,0.0,4.0,90,0.00,,,0.00,Wunderground v.1.15,2013-03-27 02:42:00,
2013-03-26 22:47:00,29.9,27.3,30.35,North,355,0.0,4.0,90,0.00,,,0.00,Wunderground v.1.15,2013-03-27 02:47:00,
2013-03-26 22:52:00,29.8,27.2,30.36,NNE,24,0.0,1.0,90,0.00,,,0.00,Wunderground v.1.15,2013-03-27 02:52:00,
2013-03-26 22:57:00,29.8,27.2,30.36,NNE,32,0.0,5.0,90,0.00,,,0.00,Wunderground v.1.15,2013-03-27 02:57:00,
2013-03-26 23:02:00,29.7,26.9,30.36,WSW,245,0.0,3.0,89,0.00,,,0.00,Wunderground v.1.15,2013-03-27 03:02:00,
2013-03-26 23:07:00,29.7,26.9,30.36,NNE,23,10.0,10.0,89,0.00,,,0.00,Wunderground v.1.15,2013-03-27 03:07:00,
2013-03-26 23:12:00,29.8,27.0,30.35,NNW,346,3.0,3.0,89,0.00,,,0.00,Wunderground v.1.15,2013-03-27 03:12:00,
2013-03-26 23:17:00,29.8,26.7,30.35,WSW,251,0.0,3.0,88,0.00,,,0.00,Wunderground v.1.15,2013-03-27 03:17:00,
2013-03-26 23:22:00,29.9,26.5,30.35,NNE,28,1.0,2.0,87,0.00,,,0.00,Wunderground v.1.15,2013-03-27 03:22:00,
2013-03-26 23:27:00,30.0,26.6,30.35,NNW,333,0.0,3.0,87,0.00,,,0.00,Wunderground v.1.15,2013-03-27 03:27:00,
2013-03-26 23:32:00,30.1,26.4,30.36,NNW,333,1.0,2.0,86,0.00,,,0.00,Wunderground v.1.15,2013-03-27 03:32:00,
2013-03-26 23:37:00,30.2,26.5,30.36,North,5,0.0,6.0,86,0.00,,,0.00,Wunderground v.1.15,2013-03-27 03:37:00,
2013-03-26 23:42:00,30.3,26.6,30.36,WNW,297,0.0,3.0,86,0.00,,,0.00,Wunderground v.1.15,2013-03-27 03:42:00,
2013-03-26 23:47:00,30.3,26.6,30.35,NE,36,0.0,9.0,86,0.00,,,0.00,Wunderground v.1.15,2013-03-27 03:47:00,
2013-03-26 23:52:00,30.3,26.9,30.35,North,9,0.0,1.0,87,0.00,,,0.00,Wunderground v.1.15,2013-03-27 03:52:00,
2013-03-26 23:57:00,30.2,27.1,30.36,NW,313,0.0,7.0,88,0.00,,,0.00,Wunderground v.1.15,2013-03-27 03:57:00,